• In Deutschland
  • Länderverzeichnis
  • Für 7 Tage
  • Wassertemperatur
  • Satellitenkarten
  • Wetterkarte
  • Widgets
  • user-avatar
    Anmelden

    Stündliche Wetter Zelenkino

    Heute, 22 Oktober, Montag

    Zeit Temperatur Niederschläge Wind Luftdruck Luftfeuchtigkeit
    00:00 +3°C° 0 mm 2 m/S 754 mmHg 89%
    01:00 +3°C° 0 mm 2 m/S 754 mmHg 89%
    02:00 +3°C° 0 mm 2 m/S 754 mmHg 90%
    03:00 +2°C° 0 mm 3 m/S 753 mmHg 90%
    04:00 +2°C° 0 mm 3 m/S 753 mmHg 90%
    05:00 +2°C° 0 mm 3 m/S 752 mmHg 91%
    06:00 +3°C° 0 mm 4 m/S 752 mmHg 89%
    07:00 +3°C° 0 mm 4 m/S 752 mmHg 88%
    08:00 +3°C° 0 mm 4 m/S 751 mmHg 87%
    09:00 +4°C° 0 mm 4 m/S 751 mmHg 82%
    10:00 +6°C° 0 mm 5 m/S 750 mmHg 77%
    11:00 +7°C° 0 mm 5 m/S 750 mmHg 72%
    12:00 +8°C° 0 mm 5 m/S 749 mmHg 70%
    13:00 +8°C° 0 mm 5 m/S 748 mmHg 69%
    14:00 +8°C° 0 mm 5 m/S 747 mmHg 67%
    15:00 +8°C° 0 mm 5 m/S 747 mmHg 69%
    16:00 +8°C° 0 mm 4 m/S 746 mmHg 71%
    17:00 +7°C° 0 mm 4 m/S 746 mmHg 73%
    18:00 +7°C° 0.2 mm 4 m/S 745 mmHg 76%
    19:00 +7°C° 0.2 mm 4 m/S 745 mmHg 79%
    20:00 +7°C° 0.2 mm 4 m/S 745 mmHg 82%
    21:00 +7°C° 0.6 mm 4 m/S 744 mmHg 84%
    22:00 +6°C° 0.6 mm 4 m/S 744 mmHg 86%
    23:00 +7°C° 0.6 mm 3 m/S 743 mmHg 89%

    Morgen, 23 Oktober, Dienstag

    Zeit Temperatur Niederschläge Wind Luftdruck Luftfeuchtigkeit
    00:00 +7°C° 0.1 mm 3 m/S 743 mmHg 89%
    01:00 +5°C° 0.1 mm 3 m/S 743 mmHg 90%
    02:00 +4°C° 0.1 mm 3 m/S 743 mmHg 91%
    03:00 +3°C° 0 mm 3 m/S 743 mmHg 91%
    04:00 +4°C° 0 mm 2 m/S 743 mmHg 92%
    05:00 +3°C° 0 mm 2 m/S 743 mmHg 93%
    06:00 +3°C° 0 mm 2 m/S 742 mmHg 91%
    07:00 +3°C° 0 mm 2 m/S 742 mmHg 90%
    08:00 +3°C° 0 mm 2 m/S 742 mmHg 89%
    09:00 +4°C° 0 mm 2 m/S 742 mmHg 83%
    10:00 +5°C° 0 mm 2 m/S 741 mmHg 78%
    11:00 +7°C° 0 mm 2 m/S 741 mmHg 72%
    12:00 +7°C° 0 mm 3 m/S 740 mmHg 69%
    13:00 +7°C° 0 mm 3 m/S 739 mmHg 66%
    14:00 +7°C° 0 mm 3 m/S 738 mmHg 63%
    15:00 +7°C° 0 mm 3 m/S 737 mmHg 68%
    16:00 +5°C° 0 mm 3 m/S 736 mmHg 73%
    17:00 +4°C° 0 mm 3 m/S 735 mmHg 77%
    18:00 +4°C° 0 mm 3 m/S 734 mmHg 78%
    19:00 +3°C° 0 mm 4 m/S 733 mmHg 79%
    20:00 +3°C° 0 mm 4 m/S 732 mmHg 80%
    21:00 +3°C° 0 mm 4 m/S 731 mmHg 81%
    22:00 +3°C° 0 mm 4 m/S 729 mmHg 83%
    23:00 +1°C° 0 mm 5 m/S 728 mmHg 84%

    übermorgen, 24 Oktober, Mittwoch

    Zeit Temperatur Niederschläge Wind Luftdruck Luftfeuchtigkeit
    00:00 +1°C° 0.1 mm 5 m/S 727 mmHg 84%
    01:00 +2°C° 0.1 mm 5 m/S 726 mmHg 83%
    02:00 +2°C° 0.1 mm 5 m/S 725 mmHg 83%
    03:00 +2°C° 0.3 mm 5 m/S 724 mmHg 83%
    04:00 +2°C° 0.3 mm 5 m/S 723 mmHg 83%
    05:00 +2°C° 0.3 mm 5 m/S 723 mmHg 83%
    06:00 +2°C° 0.3 mm 5 m/S 723 mmHg 83%
    07:00 +3°C° 0.3 mm 4 m/S 722 mmHg 83%
    08:00 +3°C° 0.3 mm 4 m/S 722 mmHg 83%
    09:00 +3°C° 0.5 mm 4 m/S 723 mmHg 83%
    10:00 +4°C° 0.5 mm 4 m/S 723 mmHg 83%
    11:00 +4°C° 0.5 mm 4 m/S 723 mmHg 83%
    12:00 +4°C° 0.8 mm 4 m/S 724 mmHg 83%
    13:00 +4°C° 0.8 mm 4 m/S 724 mmHg 84%
    14:00 +4°C° 0.8 mm 3 m/S 725 mmHg 84%
    15:00 +4°C° 0.7 mm 3 m/S 725 mmHg 85%
    16:00 +4°C° 0.7 mm 3 m/S 726 mmHg 85%
    17:00 +3°C° 0.7 mm 3 m/S 726 mmHg 86%
    18:00 +3°C° 0.2 mm 3 m/S 727 mmHg 86%
    19:00 +3°C° 0.2 mm 3 m/S 728 mmHg 86%
    20:00 +3°C° 0.2 mm 3 m/S 729 mmHg 86%
    21:00 +2°C° 0 mm 3 m/S 729 mmHg 87%
    22:00 +2°C° 0 mm 3 m/S 730 mmHg 88%
    23:00 +1°C° 0 mm 3 m/S 730 mmHg 89%

    25 Oktober, Donnerstag

    Zeit Temperatur Niederschläge Wind Luftdruck Luftfeuchtigkeit
    00:00 +1°C° 0 mm 3 m/S 731 mmHg 90%
    01:00 0°C° 0 mm 4 m/S 731 mmHg 91%
    02:00 0°C° 0 mm 4 m/S 732 mmHg 92%
    03:00 -1°C° 0 mm 4 m/S 732 mmHg 93%
    04:00 0°C° 0 mm 3 m/S 732 mmHg 93%
    05:00 0°C° 0 mm 3 m/S 733 mmHg 93%
    06:00 0°C° 0 mm 3 m/S 733 mmHg 92%
    07:00 0°C° 0 mm 3 m/S 733 mmHg 92%
    08:00 0°C° 0 mm 3 m/S 733 mmHg 91%
    09:00 +1°C° 0 mm 3 m/S 733 mmHg 87%
    10:00 +2°C° 0 mm 3 m/S 733 mmHg 83%
    11:00 +3°C° 0 mm 3 m/S 733 mmHg 79%
    12:00 +3°C° 0 mm 3 m/S 733 mmHg 77%
    13:00 +4°C° 0 mm 3 m/S 733 mmHg 75%
    14:00 +4°C° 0 mm 3 m/S 732 mmHg 73%
    15:00 +3°C° 0 mm 3 m/S 732 mmHg 77%
    16:00 +3°C° 0 mm 3 m/S 732 mmHg 82%
    17:00 +3°C° 0 mm 2 m/S 732 mmHg 87%
    18:00 +3°C° 0 mm 2 m/S 732 mmHg 89%
    19:00 +2°C° 0 mm 2 m/S 732 mmHg 91%
    20:00 +2°C° 0 mm 2 m/S 732 mmHg 93%
    21:00 +2°C° 0 mm 2 m/S 732 mmHg 93%
    22:00 +2°C° 0 mm 2 m/S 732 mmHg 93%
    23:00 +2°C° 0 mm 2 m/S 732 mmHg 93%

    26 Oktober, Freitag

    Zeit Temperatur Niederschläge Wind Luftdruck Luftfeuchtigkeit
    00:00 +1°C° 0 mm 2 m/S 732 mmHg 94%
    01:00 +1°C° 0 mm 2 m/S 733 mmHg 95%
    02:00 +1°C° 0 mm 2 m/S 733 mmHg 95%
    03:00 +1°C° 0 mm 2 m/S 733 mmHg 95%
    04:00 0°C° 0 mm 3 m/S 733 mmHg 95%
    05:00 -1°C° 0 mm 3 m/S 734 mmHg 94%
    06:00 -1°C° 0 mm 3 m/S 734 mmHg 94%
    07:00 -1°C° 0 mm 3 m/S 734 mmHg 93%
    08:00 -1°C° 0 mm 3 m/S 734 mmHg 92%
    09:00 +1°C° 0 mm 3 m/S 735 mmHg 87%
    10:00 +2°C° 0 mm 3 m/S 735 mmHg 82%
    11:00 +3°C° 0 mm 3 m/S 736 mmHg 77%
    12:00 +4°C° 0 mm 3 m/S 736 mmHg 76%
    13:00 +4°C° 0 mm 3 m/S 736 mmHg 75%
    14:00 +5°C° 0 mm 3 m/S 736 mmHg 74%
    15:00 +4°C° 0 mm 3 m/S 736 mmHg 78%
    16:00 +5°C° 0 mm 2 m/S 736 mmHg 82%
    17:00 +4°C° 0 mm 2 m/S 737 mmHg 86%
    18:00 +4°C° 0 mm 2 m/S 737 mmHg 88%
    19:00 +4°C° 0 mm 2 m/S 736 mmHg 89%
    20:00 +2°C° 0 mm 3 m/S 736 mmHg 90%
    21:00 +2°C° 0.1 mm 3 m/S 736 mmHg 90%
    22:00 +3°C° 0.1 mm 3 m/S 736 mmHg 91%
    23:00 +3°C° 0.1 mm 4 m/S 735 mmHg 91%

    27 Oktober, Samstag

    Zeit Temperatur Niederschläge Wind Luftdruck Luftfeuchtigkeit
    00:00 +4°C° 0.9 mm 4 m/S 735 mmHg 90%
    01:00 +5°C° 0.9 mm 4 m/S 735 mmHg 90%
    02:00 +6°C° 0.9 mm 4 m/S 734 mmHg 90%
    03:00 +6°C° 0.1 mm 5 m/S 734 mmHg 88%
    04:00 +6°C° 0.1 mm 5 m/S 734 mmHg 87%
    05:00 +6°C° 0.1 mm 5 m/S 734 mmHg 85%
    06:00 +6°C° 0 mm 5 m/S 735 mmHg 84%
    07:00 +6°C° 0 mm 5 m/S 735 mmHg 83%
    08:00 +6°C° 0 mm 4 m/S 736 mmHg 82%
    09:00 +6°C° 0 mm 5 m/S 736 mmHg 79%
    10:00 +6°C° 0 mm 5 m/S 737 mmHg 77%
    11:00 +7°C° 0 mm 5 m/S 737 mmHg 74%
    12:00 +7°C° 0 mm 5 m/S 737 mmHg 72%
    13:00 +7°C° 0 mm 4 m/S 738 mmHg 71%
    14:00 +8°C° 0 mm 4 m/S 738 mmHg 69%
    15:00 +7°C° 0 mm 4 m/S 738 mmHg 74%
    16:00 +7°C° 0 mm 3 m/S 738 mmHg 78%
    17:00 +6°C° 0 mm 2 m/S 738 mmHg 82%
    18:00 +6°C° 0 mm 2 m/S 739 mmHg 83%
    19:00 +6°C° 0 mm 2 m/S 739 mmHg 83%
    20:00 +6°C° 0 mm 2 m/S 740 mmHg 84%
    21:00 +6°C° 0 mm 2 m/S 740 mmHg 87%
    22:00 +7°C° 0 mm 1 m/S 739 mmHg 90%
    23:00 +6°C° 0 mm 1 m/S 739 mmHg 92%

    28 Oktober, Sonntag

    Zeit Temperatur Niederschläge Wind Luftdruck Luftfeuchtigkeit
    00:00 +6°C° 0.4 mm 1 m/S 739 mmHg 93%
    01:00 +6°C° 0.4 mm 1 m/S 739 mmHg 93%
    02:00 +6°C° 0.4 mm 1 m/S 739 mmHg 94%
    03:00 +6°C° 0.6 mm 1 m/S 738 mmHg 94%
    04:00 +5°C° 0.6 mm 2 m/S 738 mmHg 93%
    05:00 +5°C° 0.6 mm 2 m/S 738 mmHg 93%
    06:00 +4°C° 0.3 mm 3 m/S 738 mmHg 92%
    07:00 +4°C° 0.3 mm 3 m/S 738 mmHg 91%
    08:00 +4°C° 0.3 mm 3 m/S 739 mmHg 90%
    09:00 +5°C° 0 mm 3 m/S 739 mmHg 88%
    10:00 +5°C° 0 mm 3 m/S 740 mmHg 86%
    11:00 +5°C° 0 mm 3 m/S 740 mmHg 84%
    12:00 +5°C° 0.1 mm 3 m/S 741 mmHg 83%
    13:00 +5°C° 0.1 mm 3 m/S 741 mmHg 82%
    14:00 +5°C° 0.1 mm 3 m/S 742 mmHg 82%
    15:00 +5°C° 0.2 mm 3 m/S 742 mmHg 83%
    16:00 +4°C° 0.2 mm 3 m/S 742 mmHg 85%
    17:00 +4°C° 0.2 mm 3 m/S 743 mmHg 86%
    18:00 +3°C° 0.2 mm 3 m/S 743 mmHg 86%
    19:00 +3°C° 0.2 mm 3 m/S 744 mmHg 86%
    20:00 +3°C° 0.2 mm 3 m/S 744 mmHg 85%
    21:00 +2°C° 0.1 mm 3 m/S 744 mmHg 86%
    22:00 +2°C° 0.1 mm 3 m/S 745 mmHg 86%
    23:00 +2°C° 0.1 mm 3 m/S 745 mmHg 86%
    Mehr zeigen